< Cyclone 201207 2012 Season Cyclone 201212 >
Cyclone 201211 (Iggy)
General InformationTrack Information on Google MapsDetailed Wind InformationList of All Images || ResourceGoogle EarthGE AnimationAtom FeedGeoJSON
Detalied Best Track (Time Zone = UTC)
Year Month Day Hour Lat. Long. Pressure (hPa) Wind (kt) Class Image Chart
2012 1 23 12 -14.9 116.0 1002 25 2 Image --
2012 1 23 18 -15.1 114.5 1001 25 2 Image --
2012 1 24 00 -15.2 113.0 1001 25 2 Image --
2012 1 24 06 -15.4 112.0 998 30 2 Image --
2012 1 24 12 -15.5 111.0 998 30 2 Image --
2012 1 24 18 -15.7 110.2 997 30 2 Image --
2012 1 25 00 -15.7 109.4 993 30 2 Image --
2012 1 25 06 -15.7 108.3 990 35 3 Image --
2012 1 25 12 -15.7 108.4 988 35 3 Image --
2012 1 25 18 -15.9 108.5 985 40 3 Image --
2012 1 26 00 -16.1 108.6 978 50 4 Image --
2012 1 26 06 -16.5 108.9 978 50 4 Image --
2012 1 26 12 -17.0 109.4 976 50 4 Image --
2012 1 26 18 -17.5 109.7 975 50 4 Image --
2012 1 27 00 -18.1 110.0 980 50 4 Image --
2012 1 27 06 -18.6 110.5 979 50 4 Image --
2012 1 27 12 -19.0 110.8 978 50 4 Image --
2012 1 27 18 -19.4 110.6 979 50 4 Image --
2012 1 28 00 -19.6 110.7 977 55 4 Image --
2012 1 28 06 -19.8 110.7 976 55 4 Image --
2012 1 28 12 -19.9 110.9 974 55 4 Image --
2012 1 28 18 -19.8 111.1 975 55 4 Image --
2012 1 29 00 -19.7 111.2 977 55 4 Image --
2012 1 29 06 -19.7 111.2 976 50 4 Image --
2012 1 29 12 -19.7 111.1 975 50 4 Image --
2012 1 29 18 -19.7 111.0 979 50 4 Image --
2012 1 30 00 -19.8 110.7 983 50 4 Image --
2012 1 30 06 -20.1 110.6 983 50 4 Image --
2012 1 30 07 -20.1 110.6 986.5 50 2 Image --
2012 1 30 12 -20.6 110.2 990 50 4 Image --
2012 1 30 18 -21.2 109.8 990 45 3 Image --
2012 1 31 00 -21.8 109.4 984 45 3 Image --
2012 1 31 06 -22.6 108.9 980 50 4 Image --
2012 1 31 12 -23.8 108.2 977 60 4 Image --
2012 1 31 18 -24.8 107.7 976 60 4 Image --
2012 2 1 00 -26.1 107.8 978 55 4 Image --
2012 2 1 06 -27.4 107.9 981 50 4 Image --
2012 2 1 12 -28.4 108.5 985 45 3 Image --
2012 2 1 18 -29.0 109.4 988 40 3 Image --
2012 2 2 00 -29.7 110.8 989 35 3 Image --
2012 2 2 06 -29.7 111.9 991 30 2 Image --
2012 2 2 12 -29.8 113.2 995 25 2 Image --
2012 2 2 18 -29.7 114.1 994 25 2 Image --
2012 2 3 00 -29.4 115.0 997 20 2 Image --
< Cyclone 201207 2012 Season Cyclone 201212 >

Help